[[{"header":{"parameterUnit":"m.s-1","parameterCategory":1,"la1":30.2991,"la2":30.254,"lo1":-89.0895,"lo2":-89.0444,"dy":0.0017,"dx":0.0017,"nx":28,"ny":28,"refTime":"2023-08-03T21:00:00:Z","depth":0,"parameterNumber":2,"parameterNumberName":"U-component_of_WINDS"},"data":[0,0,0,0,0,0,0,0,0,0,0,0,0,0,0,0,0,0,0,0,0,0,0,0,0,0,0,0,0,0,0,0,0,0,0,0,0,0,0,0,0,0,0,0,0,0,0,0,0,0,0,0,0,0,0,0,0,0,2.505,2.5052,0,2.5241,2.5243,2.5245,2.5262,2.526,2.5258,2.5256,2.5456,2.5463,2.547,0,0,0,0,0,0,0,0,0,0,0,0,0,2.4705,2.4711,2.505,2.5052,2.5055,2.524,2.5243,2.5246,2.5263,2.526,2.5258,2.5255,2.5454,2.5462,2.5471,0,0,0,0,0,0,0,0,0,0,0,0,0,2.4871,2.4713,2.5049,2.5085,2.509,2.524,2.5243,2.5246,2.5263,2.526,2.5257,2.5254,2.5451,2.5462,2.5472,2.56,0,0,2.5505,2.551,0,0,0,0,0,0,0,0,2.4862,2.4884,2.5078,2.5083,2.5089,2.5225,2.5195,2.5365,2.5264,2.5198,2.5256,2.5253,2.5382,2.5398,2.5441,2.5609,2.5618,2.5506,2.5513,2.5518,2.5521,0,0,0,0,0,0,0,2.485,2.4876,2.5125,2.5081,2.5088,2.5094,2.5114,2.5227,2.5305,2.5203,2.5205,2.5227,2.5385,2.543,2.5446,2.5621,2.5506,2.5516,2.5522,2.5527,2.5905,2.5909,0,0,0,0,0,0,2.4831,2.4866,2.5119,2.5131,2.4965,2.5102,2.5125,2.5184,2.5304,2.5319,2.523,2.5227,2.5413,2.5433,2.5453,2.5611,2.5517,2.5528,2.5534,2.5902,2.5906,2.591,0,0,0,0,0,0,2.4824,2.4854,2.5112,2.4999,2.5032,2.5111,2.5178,2.519,2.5235,2.5323,2.5338,2.5262,2.5412,2.5438,2.5563,2.5618,2.5532,2.5542,2.5898,2.5903,2.5908,2.5928,0,0,0,0,0,0,2.4814,2.4851,2.4899,2.5,2.5038,2.5218,2.5181,2.5196,2.5254,2.5252,2.5357,2.5372,2.5411,2.5547,2.5574,2.5631,2.5551,2.5893,2.59,2.5906,2.5922,2.5933,2.5942,0,0,0,0,0,2.4801,2.4897,2.4901,2.4932,2.51,2.5221,2.5243,2.5285,2.5258,2.5308,2.5364,2.5369,2.5608,2.556,2.559,2.5652,2.589,2.5898,2.5906,2.5918,2.5931,2.5942,0,0,0,0,0,0,2.4802,2.4911,2.4917,2.5048,2.5125,2.5223,2.5287,2.5297,2.5384,2.5379,2.5429,2.5453,2.5577,2.5627,2.5572,2.5782,2.5746,2.5761,2.5745,2.5758,2.5767,2.5753,2.556,0,0,0,0,0,2.4817,2.4904,2.4996,2.5103,2.5141,2.5208,2.5262,2.5288,2.537,2.5403,2.5468,2.5549,2.5643,2.5703,2.5794,2.593,2.5954,2.5987,2.5997,2.6005,2.6017,2.6093,2.611,2.5937,2.5936,2.5936,0,0,2.485,2.492,2.4973,2.5105,2.5168,2.5259,2.5235,2.5332,2.54,2.5418,2.554,2.5591,2.5685,2.5817,2.5878,2.5862,2.607,2.6015,2.602,2.6028,2.6103,2.612,2.6134,2.5942,2.5941,2.594,0,0,2.4956,2.5017,2.5114,2.5177,2.5271,2.5315,2.5338,2.5436,2.547,2.5593,2.5609,2.5692,2.5851,2.5917,2.5972,2.6104,2.6112,2.6133,2.6184,2.6258,2.6271,2.6284,2.6331,2.6348,2.6144,2.6144,2.6144,0,2.4985,2.5121,2.5163,2.5259,2.5318,2.5337,2.5436,2.5495,2.5615,2.5656,2.5636,2.5837,2.5902,2.6049,2.6081,2.6125,2.6154,2.6121,2.6266,2.6279,2.6291,2.6337,2.6355,2.6146,2.6146,2.6146,2.6146,0,2.5152,2.5246,2.5313,2.5427,2.5493,2.5591,2.5649,2.5711,2.5732,2.5778,2.5904,2.5982,2.6089,2.6126,2.6148,2.6278,2.6265,2.6255,2.622,2.6308,2.6353,2.637,2.6149,2.6148,2.6148,2.6147,0,0,2.5263,2.5399,2.5423,2.5475,2.5582,2.5656,2.5755,2.5859,2.5912,2.5994,2.6079,2.6214,2.6206,2.6268,2.6297,2.6362,2.6463,2.6345,2.6348,2.6364,2.6612,2.6618,2.6637,2.6468,2.6472,2.6475,2.6604,0,2.5381,2.5556,2.5597,2.5748,2.5836,2.5856,2.5943,2.6018,2.6065,2.6148,2.6199,2.6294,2.6276,2.6313,2.6379,2.6436,2.6513,2.6428,2.6549,2.6553,2.6524,2.6661,2.6668,2.6786,2.6621,2.6624,2.6626,0,2.5541,2.5626,2.5786,2.5881,2.592,2.5997,2.6095,2.6174,2.6261,2.629,2.6359,2.6382,2.6488,2.6447,2.6594,2.6535,2.6587,2.6623,2.6629,2.6642,2.6594,2.6677,2.6824,2.6842,2.6654,2.6652,2.665,0,2.5606,2.5761,2.5876,2.5921,2.6035,2.6089,2.6139,2.6222,2.6282,2.6369,2.6409,2.6508,2.6562,2.6638,2.6688,2.6654,2.6831,2.6794,2.6859,2.6858,2.6895,2.6892,2.7053,2.6929,2.6929,2.6929,2.6928,0,2.5734,2.583,2.5907,2.5978,2.6088,2.6135,2.6243,2.6294,2.6368,2.645,2.6475,2.6552,2.6612,2.6698,2.6738,2.6854,2.6878,2.6906,2.6915,2.6903,2.69,2.6938,2.6931,2.6933,2.6932,2.6931,2.6931,0,2.5824,2.5879,2.6007,2.6105,2.6132,2.6208,2.6292,2.6363,2.641,2.6514,2.6541,2.6616,2.6718,2.6775,2.6904,2.6931,2.706,2.7066,2.703,2.7034,2.7096,2.7089,2.7286,2.7315,2.7172,2.7174,2.7175,0,2.5901,2.5976,2.6082,2.6138,2.6189,2.628,2.6341,2.6392,2.6455,2.6559,2.6618,2.6721,2.6807,2.697,2.7036,2.7135,2.7143,2.7206,2.7158,2.7144,2.7144,2.7139,2.7147,2.7214,2.7215,2.7216,2.7217,0,2.6033,2.6057,2.6143,2.624,2.6312,2.6391,2.647,2.6515,2.6578,2.6648,2.6753,2.6819,2.695,2.7053,2.7158,2.7211,2.7225,2.7231,2.7251,2.724,2.7216,2.723,2.7052,2.7226,2.7225,2.7225,2.7224,2.7224,2.612,2.6187,2.6272,2.6368,2.6432,2.6505,2.6576,2.6632,2.672,2.683,2.6855,2.6965,2.7052,2.7193,2.725,2.7338,2.7326,2.7355,2.7363,2.7369,2.7371,2.7203,2.7357,2.7357,2.7357,2.7356,2.7356,0,2.6252,2.6308,2.6396,2.6504,2.658,2.6586,2.6673,2.6737,2.6833,2.6912,2.6995,2.7116,2.7216,2.7291,2.7393,2.7449,2.7458,2.7475,2.7471,2.7483,2.7376,2.7348,2.7466,2.7466,2.7466,2.7466,2.7466,2.7466,2.633,2.6444,2.6479,2.6626,2.6682,2.6789,2.6839,2.6907,2.697,2.7103,2.7186,2.7233,2.7311,2.742,2.7512,2.7532,2.7569,2.7584,2.7604,2.7502,2.7491,2.7479,2.7453,2.7592,2.7592,2.7705,2.7706,2.7706]},{"header":{"parameterUnit":"m.s-1","parameterCategory":1,"la1":30.2991,"la2":30.254,"lo1":-89.0895,"lo2":-89.0444,"dy":0.0017,"dx":0.0017,"nx":28,"ny":28,"refTime":"2023-08-03T21:00:00:Z","depth":0,"parameterNumber":3,"parameterNumberName":"V-component_of_WINDS"},"data":[0,0,0,0,0,0,0,0,0,0,0,0,0,0,0,0,0,0,0,0,0,0,0,0,0,0,0,0,0,0,0,0,0,0,0,0,0,0,0,0,0,0,0,0,0,0,0,0,0,0,0,0,0,0,0,0,0,0,3.947,3.9472,0,3.9585,3.9587,3.9588,3.9573,3.9571,3.957,3.9568,3.9683,3.9688,3.9692,0,0,0,0,0,0,0,0,0,0,0,0,0,3.9233,3.9237,3.947,3.9472,3.9473,3.9585,3.9587,3.9588,3.9574,3.9571,3.9569,3.9567,3.9681,3.9687,3.9693,0,0,0,0,0,0,0,0,0,0,0,0,0,3.9341,3.9239,3.947,3.9479,3.9481,3.9585,3.9587,3.9589,3.9574,3.9571,3.9568,3.9566,3.9679,3.9686,3.9694,3.9794,0,0,3.9716,3.9719,0,0,0,0,0,0,0,0,3.9335,3.9349,3.9477,3.9479,3.9481,3.9562,3.9545,3.9658,3.9575,3.9539,3.9568,3.9565,3.9645,3.9655,3.9682,3.98,3.9804,3.9716,3.9721,3.9724,3.9726,0,0,0,0,0,0,0,3.9327,3.9344,3.9516,3.9478,3.9481,3.9476,3.9488,3.9566,3.9606,3.9542,3.9541,3.9555,3.9646,3.9675,3.9685,3.9806,3.9716,3.9722,3.9727,3.973,4.0006,4.0009,0,0,0,0,0,0,3.9318,3.9338,3.9512,3.9519,3.94,3.9483,3.9496,3.9539,3.9605,3.9613,3.9557,3.9554,3.9664,3.9677,3.9689,3.9807,3.9724,3.973,3.9734,4.0003,4.0007,4.001,0,0,0,0,0,0,3.9313,3.9333,3.9507,3.9429,3.945,3.949,3.9538,3.9543,3.9573,3.9617,3.9623,3.9581,3.9663,3.9679,3.9767,3.9811,3.9734,3.974,4.0,4.0004,4.0008,4.0047,0,0,0,0,0,0,3.9306,3.9332,3.9372,3.943,3.9455,3.9586,3.9541,3.9547,3.9585,3.9582,3.9641,3.9648,3.9662,3.9756,3.9774,3.982,3.9746,3.9996,4.0002,4.0007,4.0042,4.0052,4.0061,0,0,0,0,0,3.9298,3.9379,3.9374,3.9395,3.9506,3.9588,3.9602,3.9618,3.9589,3.9628,3.9656,3.9646,3.9804,3.9766,3.9786,3.9834,3.9993,4.0,4.0006,4.0038,4.005,4.0061,0,0,0,0,0,0,3.9325,3.9387,3.9382,3.9485,3.9531,3.9586,3.9636,3.9631,3.9686,3.9681,3.9697,3.971,3.9798,3.9825,3.9781,3.9932,3.9894,3.9905,3.9911,3.9923,3.9933,3.9923,3.9752,0,0,0,0,0,3.9343,3.9406,3.9456,3.9542,3.9565,3.9597,3.9633,3.9641,3.9689,3.9709,3.9743,3.979,3.9849,3.9888,3.9946,4.0046,4.0056,4.0089,4.0098,4.0106,4.0115,4.0165,4.0179,4.0032,4.0032,4.0032,0,0,3.9381,3.9423,3.9462,3.9548,3.9585,3.9648,3.9613,3.9682,3.9728,3.9719,3.9803,3.983,3.9883,3.9976,4.0019,4.0001,4.0157,4.0115,4.0121,4.0125,4.0173,4.0187,4.0199,4.0037,4.0036,4.0035,0,0,3.9481,3.9521,3.9594,3.9632,3.9688,3.9707,3.9725,3.978,3.9797,3.9882,3.9875,3.9929,4.0033,4.0069,4.0101,4.0211,4.0202,4.023,4.0279,4.0328,4.0339,4.035,4.0385,4.0398,4.0239,4.0239,4.0239,0,3.9521,3.9617,3.9632,3.9701,3.9737,3.9732,3.9805,3.984,3.9912,3.9936,3.9916,4.0042,4.0078,4.0177,4.0204,4.0232,4.0249,4.0222,4.0337,4.0347,4.0357,4.0391,4.0405,4.0241,4.0241,4.0241,4.0241,0,3.966,3.9726,3.9779,3.9847,3.989,3.9961,3.9985,4.0026,4.0029,4.005,4.0134,4.0176,4.024,4.0265,4.0269,4.0364,4.035,4.0334,4.0295,4.0373,4.0405,4.0419,4.0245,4.0244,4.0244,4.0243,0,0,3.9782,3.9857,3.9875,3.9904,3.9965,4.0015,4.0083,4.0146,4.0179,4.0228,4.0283,4.037,4.0353,4.0389,4.0397,4.0441,4.052,4.0418,4.0419,4.0432,4.0622,4.0632,4.0647,4.0515,4.0518,4.052,4.0616,0,3.9885,4.0007,4.0022,4.0129,4.0188,4.0182,4.0241,4.0283,4.0304,4.0355,4.0377,4.0437,4.0412,4.0433,4.0476,4.0501,4.0558,4.0495,4.0563,4.0566,4.0548,4.0665,4.0677,4.0766,4.0629,4.0631,4.0633,0,4.0022,4.0074,4.0187,4.0235,4.0261,4.0314,4.037,4.042,4.0466,4.0478,4.0517,4.0518,4.0586,4.0546,4.0637,4.0594,4.0623,4.0639,4.0643,4.0647,4.0602,4.0669,4.0796,4.0808,4.0654,4.0652,4.065,0,4.0094,4.0193,4.0272,4.0298,4.0358,4.0394,4.042,4.0464,4.0499,4.0548,4.057,4.0626,4.0656,4.0699,4.0714,4.0685,4.0803,4.0766,4.0811,4.0811,4.0835,4.0833,4.0964,4.0859,4.0858,4.0858,4.0858,0,4.0207,4.0275,4.0305,4.0353,4.0428,4.0444,4.0517,4.0541,4.0579,4.063,4.0629,4.0677,4.0696,4.0745,4.0758,4.0829,4.0843,4.0852,4.0854,4.0851,4.0849,4.0868,4.0861,4.0862,4.0861,4.086,4.086,0,4.03,4.0323,4.0408,4.0457,4.047,4.0523,4.0563,4.0609,4.0628,4.0693,4.0708,4.0739,4.0797,4.0816,4.0888,4.0895,4.0977,4.0975,4.0961,4.0961,4.1004,4.0999,4.115,4.1169,4.1054,4.1055,4.1056,0,4.0368,4.042,4.0474,4.0508,4.0535,4.0591,4.0627,4.0643,4.0679,4.0733,4.0771,4.0829,4.0876,4.0969,4.0995,4.1048,4.1046,4.1095,4.1054,4.1047,4.1042,4.1038,4.1041,4.1102,4.1103,4.1104,4.1105,0,4.0486,4.0494,4.0546,4.0601,4.0644,4.0688,4.073,4.0758,4.078,4.082,4.088,4.0916,4.0987,4.1043,4.1097,4.1121,4.1116,4.1118,4.1131,4.1127,4.1115,4.1118,4.0979,4.1114,4.1113,4.1113,4.1112,4.1112,4.0567,4.0611,4.0655,4.0712,4.0745,4.0784,4.0828,4.0852,4.0902,4.0961,4.0967,4.103,4.1071,4.1142,4.1169,4.1217,4.1203,4.1222,4.1227,4.1231,4.1232,4.1109,4.1227,4.1227,4.1227,4.1226,4.1226,0,4.0682,4.0709,4.0761,4.082,4.0863,4.0856,4.0901,4.0937,4.0993,4.1032,4.1078,4.1144,4.1197,4.1227,4.128,4.1312,4.1311,4.1325,4.1321,4.1326,4.1244,4.1226,4.1325,4.1325,4.1325,4.1325,4.1325,4.1325,4.0746,4.082,4.0833,4.0921,4.0948,4.101,4.1036,4.107,4.1101,4.1175,4.122,4.1239,4.1274,4.1328,4.1376,4.1383,4.1401,4.1416,4.1422,4.1343,4.1333,4.1323,4.1306,4.1421,4.1421,4.15,4.1501,4.1501]}]]